OE6NPC-WX Weather Reports


time (UTC)temp
C
wind
direction
speed
KPH
gust
KPH
rain 1hr
cm
rain 24hr
cm
rain mn
cm
humidity
%
barometer
mb
20260503034029 9 0.0 0.0 0.00 0.00 0.00 63 966.5
20260503033025 9 0.0 0.0 0.00 0.00 0.00 62 966.5
20260503032021 10 0.0 0.0 0.00 0.00 0.00 62 966.5
20260503031017 10 0.0 0.0 0.00 0.00 0.00 61 966.5
20260503030012 10 0.0 0.0 0.00 0.00 0.00 62 966.5
20260503025008 10 0.0 0.0 0.00 0.00 0.00 62 966.5
20260503024004 10 0.0 0.0 0.00 0.00 0.00 61 966.7
20260503023000 10 0.0 0.0 0.00 0.00 0.00 61 966.7
20260503021956 10 0.0 0.0 0.00 0.00 0.00 61 966.8
20260503020952 10 0.0 0.0 0.00 0.00 0.00 60 966.8
20260503015948 10 0.0 0.0 0.00 0.00 0.00 60 966.9
20260503014943 10 0.0 0.0 0.00 0.00 0.00 59 966.9
20260503013939 10 0.0 0.0 0.00 0.00 0.00 59 967.0
20260503012935 10 0.0 0.0 0.00 0.00 0.00 59 966.9
20260503011931 10 0.0 0.0 0.00 0.00 0.00 59 967.0
20260503010927 10 0.0 0.0 0.00 0.00 0.00 58 967.1
20260503005922 10 0.0 0.0 0.00 0.00 0.00 58 967.1
20260503004918 10 0.0 0.0 0.00 0.00 0.00 58 967.3
20260503003913 10 0.0 0.0 0.00 0.00 0.00 57 967.3
20260503002909 11 0.0 0.0 0.00 0.00 0.00 56 967.3
20260503001904 11 0.0 0.0 0.00 0.00 0.00 56 967.3
20260503000900 11 0.0 0.0 0.00 0.00 0.00 56 967.5
20260502235855 11 0.0 0.0 0.00 0.00 0.00 56 967.5
20260502234850 11 0.0 0.0 0.00 0.00 0.00 55 967.6
20260502233846 11 0.0 0.0 0.00 0.00 0.00 55 967.7
20260502232841 11 0.0 0.0 0.00 0.00 0.00 55 967.7
20260502231837 11 0.0 0.0 0.00 0.00 0.00 54 967.9
20260502230832 11 0.0 0.0 0.00 0.00 0.00 54 967.9
20260502225828 11 0.0 0.0 0.00 0.00 0.00 54 968.1
20260502224823 11 0.0 0.0 0.00 0.00 0.00 54 968.1
20260502223818 12 0.0 0.0 0.00 0.00 0.00 53 968.1
20260502222814 12 0.0 0.0 0.00 0.00 0.00 53 968.2
20260502221810 12 0.0 0.0 0.00 0.00 0.00 53 968.2
20260502220805 12 0.0 0.0 0.00 0.00 0.00 53 968.2
20260502215801 12 0.0 0.0 0.00 0.00 0.00 52 968.4
20260502214756 12 0.0 0.0 0.00 0.00 0.00 52 968.2
20260502213752 12 0.0 0.0 0.00 0.00 0.00 52 968.3
20260502212747 12 0.0 0.0 0.00 0.00 0.00 51 968.3
20260502211743 13 0.0 0.0 0.00 0.00 0.00 51 968.4
20260502210739 13 0.0 0.0 0.00 0.00 0.00 51 968.4
20260502205735 13 0.0 0.0 0.00 0.00 0.00 50 968.4
20260502204730 13 0.0 0.0 0.00 0.00 0.00 49 968.5
20260502203726 13 0.0 0.0 0.00 0.00 0.00 50 968.5
20260502202721 13 0.0 0.0 0.00 0.00 0.00 48 968.5
20260502201716 13 0.0 0.0 0.00 0.00 0.00 48 968.6
20260502200712 14 0.0 0.0 0.00 0.00 0.00 47 968.5
20260502194702 15 0.0 0.0 0.00 0.00 0.00 45 968.6
20260502193658 15 0.0 0.0 0.00 0.00 0.00 45 968.5
20260502192653 15 0.0 0.0 0.00 0.00 0.00 45 968.6
20260502191648 15 0.0 0.0 0.00 0.00 0.00 44 968.5
20260502190644 15 0.0 0.0 0.00 0.00 0.00 44 968.4
20260502185639 16 0.0 0.0 0.00 0.00 0.00 43 968.4
20260502184635 16 0.0 0.0 0.00 0.00 0.00 40 968.3
20260502183631 16 0.0 0.0 0.00 0.00 0.00 40 968.1
20260502182627 17 0.0 0.0 0.00 0.00 0.00 38 968.1
20260502181623 17 0.0 0.0 0.00 0.00 0.00 37 968.0
20260502180618 17 0.0 0.0 0.00 0.00 0.00 37 967.9
20260502163541 19 0.0 0.0 0.00 0.00 0.00 34 967.5
20260502160529 20 0.0 0.0 0.00 0.00 0.00 31 967.8
20260502151508 20 0.0 0.0 0.00 0.00 0.00 27 968.2
20260502150504 21 0.0 0.0 0.00 0.00 0.00 28 968.3
20260502130414 21 0.0 0.0 0.00 0.00 0.00 26 969.5
20260502123401 21 0.0 0.0 0.00 0.00 0.00 27 969.8
20260502122357 21 0.0 0.0 0.00 0.00 0.00 27 969.9
20260502121353 21 0.0 0.0 0.00 0.00 0.00 27 970.0
20260502120348 21 0.0 0.0 0.00 0.00 0.00 27 970.2
20260502115344 21 0.0 0.0 0.00 0.00 0.00 27 970.3
20260502114339 21 0.0 0.0 0.00 0.00 0.00 26 970.4
20260502113335 21 0.0 0.0 0.00 0.00 0.00 26 970.5
20260502112331 20 0.0 0.0 0.00 0.00 0.00 30 970.5
20260502111326 20 0.0 0.0 0.00 0.00 0.00 27 970.7
20260502110321 20 0.0 0.0 0.00 0.00 0.00 28 970.9
20260502105317 21 0.0 0.0 0.00 0.00 0.00 28 970.9
20260502104312 21 0.0 0.0 0.00 0.00 0.00 28 971.1
20260502103308 21 0.0 0.0 0.00 0.00 0.00 28 971.1
20260502102306 21 0.0 0.0 0.00 0.00 0.00 29 971.2
20260502101259 21 0.0 0.0 0.00 0.00 0.00 28 971.3
20260502100254 21 0.0 0.0 0.00 0.00 0.00 27 971.5
20260502091232 21 0.0 0.0 0.00 0.00 0.00 27 972.1
20260502090228 21 0.0 0.0 0.00 0.00 0.00 26 972.2
20260502071139 20 0.0 0.0 0.00 0.00 0.00 32 972.4
20260502070135 20 0.0 0.0 0.00 0.00 0.00 35 972.4
20260502065130 19 0.0 0.0 0.00 0.00 0.00 38 972.4
20260502064125 18 0.0 0.0 0.00 0.00 0.00 40 972.3
20260502063121 18 0.0 0.0 0.00 0.00 0.00 40 972.3
20260502062117 18 0.0 0.0 0.00 0.00 0.00 40 972.5
20260502061113 17 0.0 0.0 0.00 0.00 0.00 41 972.5
20260502060108 17 0.0 0.0 0.00 0.00 0.00 41 972.5
20260502055104 16 0.0 0.0 0.00 0.00 0.00 42 972.5
20260502054100 16 0.0 0.0 0.00 0.00 0.00 43 972.6
20260502053056 15 0.0 0.0 0.00 0.00 0.00 44 972.6
20260502052052 15 0.0 0.0 0.00 0.00 0.00 44 972.6
20260502051048 14 0.0 0.0 0.00 0.00 0.00 45 972.5
20260502050044 13 0.0 0.0 0.00 0.00 0.00 47 972.5
20260502045039 13 0.0 0.0 0.00 0.00 0.00 49 972.4
20260502044035 12 0.0 0.0 0.00 0.00 0.00 51 972.5
20260502043031 11 0.0 0.0 0.00 0.00 0.00 54 972.4
20260502042027 10 0.0 0.0 0.00 0.00 0.00 57 972.3
20260502041023 9 0.0 0.0 0.00 0.00 0.00 61 972.3
20260502040019 8 0.0 0.0 0.00 0.00 0.00 61 972.3
20260502035014 8 0.0 0.0 0.00 0.00 0.00 61 972.2